| time (UTC) | temp F | wind direction | speed MPH | gust MPH | rain 1hr in | rain 24hr in | rain mn in | humidity % | barometer mb |
| 20260831140100 | 72 | 24 | 4.0 | 7.0 | 0.00 | 1.46 | 0.49 | 99 | 680.0 |
| 20260831134935 | 71 | 28 | 3.0 | 6.0 | 0.00 | 1.47 | 0.49 | 99 | 680.0 |
| 20260831133955 | 71 | 11 | 4.0 | 8.0 | 0.00 | 1.47 | 0.49 | 99 | 679.9 |
| 20260831133020 | 70 | 248 | 0.0 | 1.0 | 0.02 | 1.47 | 0.49 | 99 | 679.9 |
| 20260831131956 | 69 | 347 | 0.0 | 1.0 | 0.03 | 1.48 | 0.49 | 99 | 679.9 |
| 20260831131021 | 69 | 221 | 1.0 | 2.0 | 0.03 | 1.50 | 0.49 | 99 | 679.9 |
| 20260831130021 | 68 | 234 | 1.0 | 2.0 | 0.03 | 1.53 | 0.49 | 99 | 679.9 |
| 20260831125021 | 68 | 206 | 1.0 | 2.0 | 0.03 | 1.55 | 0.49 | 99 | 679.9 |
| 20260831124021 | 68 | 261 | 1.0 | 2.0 | 0.04 | 1.60 | 0.49 | 99 | 679.9 |
| 20260831123021 | 68 | 359 | 3.0 | 8.0 | 0.03 | 1.60 | 0.47 | 99 | 679.9 |
| 20260831121936 | 68 | 359 | 3.0 | 5.0 | 0.06 | 1.59 | 0.47 | 99 | 679.9 |
| 20260831121021 | 68 | 12 | 2.0 | 5.0 | 0.15 | 1.59 | 0.47 | 99 | 679.9 |
| 20260831120021 | 68 | 324 | 0.0 | 1.0 | 0.21 | 1.59 | 0.46 | 99 | 679.9 |
| 20260831115022 | 68 | 337 | 1.0 | 2.0 | 0.23 | 1.59 | 0.46 | 99 | 679.9 |
| 20260831114022 | 68 | 325 | 0.0 | 2.0 | 0.23 | 1.58 | 0.45 | 99 | 679.9 |
| 20260831113022 | 67 | 243 | 1.0 | 1.0 | 0.23 | 1.57 | 0.44 | 99 | 679.9 |
| 20260831111957 | 67 | 284 | 1.0 | 1.0 | 0.20 | 1.54 | 0.40 | 99 | 679.9 |
| 20260831110937 | 67 | 5 | 4.0 | 5.0 | 0.14 | 1.45 | 0.32 | 99 | 679.9 |
| 20260831110022 | 67 | 83 | 1.0 | 4.0 | 0.08 | 1.39 | 0.26 | 99 | 679.9 |
| 20260831105022 | 67 | 11 | 4.0 | 7.0 | 0.05 | 1.36 | 0.23 | 99 | 679.9 |
| 20260831104022 | 67 | 16 | 2.0 | 6.0 | 0.03 | 1.35 | 0.21 | 99 | 679.9 |
| 20260831103022 | 67 | 13 | 2.0 | 4.0 | 0.03 | 1.35 | 0.21 | 99 | 679.9 |
| 20260831102022 | 67 | 337 | 1.0 | 2.0 | 0.04 | 1.33 | 0.20 | 99 | 679.9 |
| 20260831100937 | 67 | 347 | 2.0 | 2.0 | 0.02 | 1.31 | 0.18 | 99 | 679.9 |
| 20260831095938 | 67 | 340 | 2.0 | 2.0 | 0.02 | 1.31 | 0.18 | 99 | 679.9 |
| 20260831095023 | 67 | 344 | 2.0 | 3.0 | 0.02 | 1.31 | 0.18 | 99 | 679.9 |
| 20260831093938 | 67 | 330 | 1.0 | 2.0 | 0.02 | 1.31 | 0.18 | 99 | 679.9 |
| 20260831093024 | 67 | 346 | 1.0 | 2.0 | 0.02 | 1.31 | 0.18 | 99 | 679.9 |
| 20260831092019 | 67 | 330 | 2.0 | 2.0 | 0.00 | 1.30 | 0.16 | 99 | 679.9 |
| 20260831090959 | 67 | 337 | 2.0 | 2.0 | 0.00 | 1.30 | 0.16 | 99 | 679.9 |
| 20260831090024 | 67 | 335 | 1.0 | 2.0 | 0.00 | 1.30 | 0.16 | 99 | 679.9 |
| 20260831085024 | 66 | 345 | 2.0 | 2.0 | 0.00 | 1.30 | 0.16 | 99 | 679.9 |
| 20260831084025 | 66 | 324 | 1.0 | 2.0 | 0.00 | 1.30 | 0.16 | 99 | 679.9 |
| 20260831082939 | 66 | 326 | 0.0 | 1.0 | 0.00 | 1.30 | 0.16 | 99 | 679.9 |
| 20260831081939 | 66 | 247 | 1.0 | 3.0 | 0.04 | 1.30 | 0.16 | 99 | 679.9 |
| 20260831081024 | 66 | 222 | 1.0 | 2.0 | 0.05 | 1.30 | 0.16 | 99 | 679.9 |
| 20260831080025 | 66 | 351 | 2.0 | 3.0 | 0.05 | 1.30 | 0.16 | 99 | 679.9 |
| 20260831074940 | 66 | 352 | 2.0 | 3.0 | 0.05 | 1.30 | 0.16 | 99 | 679.9 |
| 20260831073940 | 66 | 342 | 1.0 | 2.0 | 0.05 | 1.30 | 0.16 | 99 | 679.9 |
| 20260831073021 | 66 | 334 | 2.0 | 3.0 | 0.09 | 1.30 | 0.16 | 99 | 679.9 |
| 20260831072025 | 66 | 8 | 3.0 | 5.0 | 0.12 | 1.25 | 0.12 | 99 | 679.9 |
| 20260831071025 | 66 | 357 | 3.0 | 4.0 | 0.11 | 1.25 | 0.11 | 99 | 679.8 |
| 20260831065940 | 66 | 0 | 3.0 | 6.0 | 0.11 | 1.25 | 0.11 | 99 | 679.8 |
| 20260831064940 | 65 | 5 | 5.0 | 7.0 | 0.11 | 1.25 | 0.11 | 99 | 679.8 |
| 20260831064046 | 65 | 357 | 2.0 | 5.0 | 0.11 | 1.25 | 0.11 | 99 | 679.8 |
| 20260831062941 | 65 | 16 | 4.0 | 6.0 | 0.07 | 1.20 | 0.07 | 99 | 679.8 |
| 20260831061941 | 65 | 354 | 3.0 | 5.0 | 0.00 | 1.13 | 0.00 | 99 | 679.8 |
| 20260831061026 | 65 | 12 | 3.0 | 6.0 | 0.00 | 1.13 | 0.00 | 99 | 679.8 |
| 20260831055941 | 65 | 357 | 2.0 | 4.0 | 0.00 | 1.13 | 0.00 | 99 | 679.8 |
| 20260831055026 | 65 | 5 | 2.0 | 5.0 | 0.00 | 1.13 | 0.00 | 99 | 679.8 |
| 20260831054027 | 64 | 1 | 2.0 | 3.0 | 0.00 | 1.13 | 0.00 | 99 | 679.8 |
| 20260831053026 | 64 | 13 | 4.0 | 8.0 | 0.00 | 1.13 | 0.00 | 99 | 679.8 |
| 20260831052027 | 64 | 6 | 2.0 | 4.0 | 0.00 | 1.13 | 0.00 | 99 | 679.8 |
| 20260831050942 | 64 | 5 | 3.0 | 5.0 | 0.00 | 1.13 | 0.00 | 99 | 679.8 |
| 20260831050027 | 64 | 16 | 4.0 | 6.0 | 0.00 | 1.13 | 0.00 | 99 | 679.8 |
| 20260831044942 | 64 | 16 | 3.0 | 7.0 | 0.00 | 1.13 | 0.00 | 99 | 679.8 |
| 20260831044028 | 64 | 10 | 4.0 | 13.0 | 0.00 | 1.13 | 0.00 | 99 | 679.8 |
| 20260831042942 | 64 | 10 | 3.0 | 6.0 | 0.00 | 1.13 | 0.00 | 99 | 679.8 |
| 20260831042028 | 64 | 19 | 3.0 | 5.0 | 0.00 | 1.13 | 0.00 | 99 | 679.8 |
| 20260831035949 | 64 | 6 | 3.0 | 6.0 | 0.00 | 1.13 | 0.00 | 99 | 679.8 |
| 20260831034949 | 64 | 355 | 2.0 | 3.0 | 0.00 | 1.13 | 1.13 | 99 | 679.8 |
| 20260831034016 | 64 | 357 | 2.0 | 5.0 | 0.00 | 1.13 | 1.13 | 99 | 679.8 |
| 20260831033017 | 64 | 341 | 2.0 | 3.0 | 0.00 | 1.13 | 1.13 | 99 | 679.8 |
| 20260831032017 | 64 | 341 | 2.0 | 4.0 | 0.00 | 1.13 | 1.13 | 99 | 679.8 |
| 20260831030944 | 64 | 342 | 2.0 | 2.0 | 0.00 | 1.13 | 1.13 | 99 | 679.8 |
| 20260831030049 | 64 | 345 | 2.0 | 3.0 | 0.00 | 1.13 | 1.13 | 99 | 679.8 |
| 20260831024944 | 64 | 336 | 2.0 | 3.0 | 0.00 | 1.13 | 1.13 | 99 | 679.8 |
| 20260831023944 | 64 | 0.0 | 0.0 | 0.00 | 1.13 | 1.13 | 99 | 679.8 | |
| 20260831023017 | 64 | 346 | 2.0 | 5.0 | 0.01 | 1.13 | 1.13 | 99 | 679.8 |
| 20260831022017 | 64 | 358 | 3.0 | 7.0 | 0.04 | 1.13 | 1.13 | 99 | 679.8 |
| 20260831021018 | 64 | 0 | 3.0 | 7.0 | 0.05 | 1.13 | 1.13 | 99 | 679.8 |
| 20260831020018 | 64 | 0 | 3.0 | 6.0 | 0.07 | 1.13 | 1.13 | 99 | 679.8 |
| 20260831015020 | 64 | 314 | 2.0 | 5.0 | 0.10 | 1.13 | 1.13 | 99 | 679.8 |
| 20260831014018 | 64 | 313 | 3.0 | 6.0 | 0.15 | 1.13 | 1.13 | 99 | 679.8 |
| 20260831013018 | 65 | 339 | 3.0 | 6.0 | 0.16 | 1.12 | 1.12 | 99 | 679.8 |
| 20260831012005 | 65 | 5 | 3.0 | 5.0 | 0.17 | 1.09 | 1.09 | 99 | 679.8 |
| 20260831010945 | 65 | 11 | 3.0 | 5.0 | 0.17 | 1.08 | 1.08 | 99 | 679.8 |
| 20260831005946 | 65 | 34 | 2.0 | 3.0 | 0.15 | 1.06 | 1.06 | 99 | 679.8 |
| 20260831005051 | 66 | 39 | 3.0 | 5.0 | 0.13 | 1.03 | 1.03 | 99 | 679.9 |
| 20260831004019 | 66 | 16 | 2.0 | 4.0 | 0.07 | 0.98 | 0.98 | 99 | 679.9 |
| 20260831003019 | 66 | 357 | 1.0 | 3.0 | 0.07 | 0.96 | 0.96 | 99 | 679.9 |
| 20260831001945 | 66 | 25 | 3.0 | 6.0 | 0.03 | 0.93 | 0.93 | 99 | 679.9 |
| 20260831001019 | 66 | 18 | 2.0 | 3.0 | 0.02 | 0.92 | 0.92 | 99 | 679.9 |
| 20260830235946 | 66 | 21 | 2.0 | 4.0 | 0.03 | 0.92 | 0.92 | 99 | 679.9 |
| 20260830235006 | 66 | 58 | 2.0 | 3.0 | 0.02 | 0.91 | 0.91 | 99 | 679.9 |
| 20260830234020 | 66 | 357 | 1.0 | 3.0 | 0.02 | 0.90 | 0.90 | 99 | 679.9 |
| 20260830233036 | 66 | 49 | 2.0 | 3.0 | 0.01 | 0.89 | 0.89 | 99 | 679.9 |
| 20260830232027 | 66 | 5 | 3.0 | 6.0 | 0.02 | 0.89 | 0.89 | 99 | 679.9 |
| 20260830230946 | 66 | 21 | 1.0 | 3.0 | 0.03 | 0.89 | 0.89 | 99 | 679.9 |
| 20260830225947 | 66 | 29 | 1.0 | 2.0 | 0.03 | 0.89 | 0.89 | 99 | 679.9 |
| 20260830224947 | 66 | 324 | 1.0 | 4.0 | 0.04 | 0.89 | 0.89 | 99 | 679.9 |
| 20260830223947 | 66 | 14 | 2.0 | 4.0 | 0.05 | 0.89 | 0.89 | 99 | 679.9 |
| 20260830223017 | 66 | 9 | 1.0 | 3.0 | 0.08 | 0.89 | 0.89 | 99 | 679.9 |
| 20260830222017 | 66 | 307 | 1.0 | 2.0 | 0.09 | 0.87 | 0.87 | 99 | 679.9 |
| 20260830221018 | 66 | 300 | 1.0 | 2.0 | 0.07 | 0.86 | 0.86 | 99 | 679.9 |
| 20260830220018 | 67 | 293 | 1.0 | 3.0 | 0.08 | 0.86 | 0.86 | 99 | 679.9 |
| 20260830215018 | 67 | 331 | 3.0 | 5.0 | 0.09 | 0.85 | 0.85 | 99 | 679.9 |
| 20260830214018 | 67 | 294 | 2.0 | 3.0 | 0.08 | 0.84 | 0.84 | 99 | 679.9 |
| 20260830213018 | 67 | 313 | 2.0 | 3.0 | 0.06 | 0.81 | 0.81 | 99 | 679.9 |
| 20260830212039 | 67 | 278 | 1.0 | 2.0 | 0.05 | 0.79 | 0.79 | 99 | 679.9 |
| 20260830211018 | 67 | 312 | 2.0 | 3.0 | 0.07 | 0.79 | 0.79 | 99 | 679.9 |
| 20260830205948 | 67 | 329 | 0.0 | 2.0 | 0.11 | 0.78 | 0.78 | 99 | 679.9 |
| 20260830205019 | 67 | 299 | 2.0 | 3.0 | 0.11 | 0.77 | 0.77 | 99 | 679.9 |
| 20260830204019 | 66 | 1 | 1.0 | 3.0 | 0.12 | 0.76 | 0.76 | 99 | 679.9 |
| 20260830203019 | 66 | 33 | 2.0 | 3.0 | 0.11 | 0.75 | 0.75 | 99 | 679.9 |
| 20260830202019 | 66 | 314 | 1.0 | 2.0 | 0.10 | 0.74 | 0.74 | 99 | 679.9 |
| 20260830201059 | 65 | 344 | 1.0 | 3.0 | 0.12 | 0.72 | 0.72 | 99 | 679.8 |
| 20260830200019 | 65 | 343 | 2.0 | 4.0 | 0.09 | 0.67 | 0.67 | 99 | 679.9 |
| 20260830195019 | 65 | 351 | 1.0 | 4.0 | 0.07 | 0.66 | 0.66 | 99 | 679.8 |
| 20260830194009 | 65 | 331 | 1.0 | 3.0 | 0.06 | 0.64 | 0.64 | 99 | 679.8 |
| 20260830193020 | 65 | 342 | 2.0 | 3.0 | 0.06 | 0.64 | 0.64 | 99 | 679.8 |
| 20260830192020 | 65 | 310 | 1.0 | 3.0 | 0.06 | 0.64 | 0.64 | 99 | 679.8 |
| 20260830191020 | 65 | 296 | 1.0 | 3.0 | 0.02 | 0.60 | 0.60 | 99 | 679.8 |
| 20260830190020 | 65 | 273 | 1.0 | 3.0 | 0.02 | 0.58 | 0.58 | 99 | 679.8 |
| 20260830185020 | 65 | 273 | 1.0 | 1.0 | 0.02 | 0.58 | 0.58 | 99 | 679.8 |
| 20260830183950 | 65 | 287 | 1.0 | 2.0 | 0.02 | 0.58 | 0.58 | 99 | 679.8 |
| 20260830182951 | 65 | 303 | 0.0 | 1.0 | 0.02 | 0.58 | 0.58 | 99 | 679.8 |
| 20260830181936 | 65 | 281 | 1.0 | 1.0 | 0.04 | 0.58 | 0.58 | 99 | 679.9 |
| 20260830181021 | 66 | 313 | 1.0 | 1.0 | 0.06 | 0.57 | 0.57 | 99 | 679.9 |
| 20260830180040 | 66 | 321 | 0.0 | 1.0 | 0.08 | 0.56 | 0.56 | 99 | 679.9 |
| 20260830174951 | 66 | 292 | 1.0 | 2.0 | 0.15 | 0.56 | 0.56 | 99 | 679.9 |
| 20260830173951 | 66 | 193 | 0.0 | 1.0 | 0.22 | 0.55 | 0.55 | 99 | 679.9 |
| 20260830173021 | 67 | 356 | 1.0 | 3.0 | 0.28 | 0.55 | 0.55 | 99 | 679.9 |
| 20260830171958 | 67 | 10 | 1.0 | 3.0 | 0.31 | 0.54 | 0.54 | 99 | 679.9 |
| 20260830171022 | 66 | 13 | 1.0 | 4.0 | 0.32 | 0.52 | 0.52 | 99 | 679.9 |
| 20260830170042 | 66 | 16 | 1.0 | 2.0 | 0.30 | 0.48 | 0.48 | 99 | 679.9 |
| 20260830164952 | 67 | 4 | 0.0 | 2.0 | 0.23 | 0.41 | 0.41 | 99 | 679.9 |
| 20260830163957 | 67 | 10 | 1.0 | 3.0 | 0.16 | 0.34 | 0.34 | 99 | 679.9 |
| 20260830162952 | 67 | 16 | 0.0 | 2.0 | 0.09 | 0.27 | 0.27 | 99 | 679.9 |
| 20260830162023 | 67 | 58 | 1.0 | 3.0 | 0.04 | 0.22 | 0.22 | 99 | 679.9 |
| 20260830160937 | 67 | 25 | 1.0 | 3.0 | 0.02 | 0.20 | 0.20 | 99 | 679.9 |
| 20260830155938 | 67 | 11 | 0.0 | 1.0 | 0.00 | 0.19 | 0.19 | 99 | 679.9 |
| 20260830155018 | 67 | 356 | 2.0 | 2.0 | 0.01 | 0.18 | 0.18 | 99 | 679.9 |
| 20260830153953 | 67 | 332 | 1.0 | 1.0 | 0.02 | 0.18 | 0.18 | 99 | 679.9 |
| 20260830153027 | 67 | 352 | 2.0 | 3.0 | 0.02 | 0.18 | 0.18 | 99 | 679.9 |
| 20260830152023 | 66 | 343 | 2.0 | 3.0 | 0.02 | 0.18 | 0.18 | 99 | 679.9 |
| 20260830151103 | 66 | 7 | 1.0 | 3.0 | 0.02 | 0.18 | 0.18 | 99 | 679.9 |
| 20260830145953 | 66 | 343 | 1.0 | 2.0 | 0.02 | 0.18 | 0.18 | 99 | 679.8 |
| 20260830145023 | 65 | 344 | 1.0 | 2.0 | 0.01 | 0.17 | 0.17 | 99 | 679.8 |
| 20260830143938 | 65 | 263 | 1.0 | 2.0 | 0.01 | 0.17 | 0.17 | 99 | 679.8 |
| 20260830143031 | 65 | 335 | 1.0 | 1.0 | 0.01 | 0.16 | 0.16 | 99 | 679.8 |
| 20260830142024 | 65 | 281 | 1.0 | 3.0 | 0.02 | 0.16 | 0.16 | 99 | 679.8 |
| 20260830141044 | 65 | 288 | 2.0 | 4.0 | 0.04 | 0.16 | 0.16 | 99 | 679.8 |